Location: Waco, TX
(31.5480°N, 97.1670°W)
Time: 18:48:26
(UTC-06:00)

ISS - Pass Details

Date: 13 January 2019
Orbit: 404 x 410 km, 51.6° (Epoch: 24 January)

Event Time Altitude Azimuth Distance (km) Brightness Sun altitude
Rises 06:24:12 0° 313° (NW) 2,338 - -13.7°
Reaches altitude 10° 06:26:18 10° 312° (NW) 1,473 - -13.3°
Exits shadow 06:27:35 22° 310° (NW) 960 -2.5 -13.0°
Maximum altitude 06:29:36 78° 227° (SW) 421 -3.9 -12.6°
Drops below altitude 10° 06:32:52 10° 140° (SE) 1,461 -0.1 -11.9°
Sets 06:34:57 0° 139° (SE) 2,317 1.1 -11.5°
